Time,TemperatureF,DewpointF,PressureIn,WindDirection,WindDirectionDegrees,WindSpeedMPH,WindSpeedGustMPH,Humidity,HourlyPrecipIn,Conditions,Clouds,dailyrainin,SoftwareType,DateUTC
2013-09-13 00:04:00,57.0,55.6,29.92,SSW,202,2.2,5.8,95,0.00,CLR,,0.00,WeatherDisplay:10.37,2013-09-13 07:04:00,
2013-09-13 00:09:00,57.0,55.6,29.92,North,10,3.8,5.8,95,0.00,CLR,,0.00,WeatherDisplay:10.37,2013-09-13 07:09:00,
2013-09-13 00:14:00,57.0,55.6,29.92,SSE,158,3.1,6.9,95,0.00,CLR,,0.00,WeatherDisplay:10.37,2013-09-13 07:14:00,
2013-09-13 00:19:00,57.0,55.6,29.91,North,9,2.2,3.5,95,0.00,CLR,,0.00,WeatherDisplay:10.37,2013-09-13 07:19:00,
2013-09-13 00:24:00,57.0,55.6,29.91,South,180,3.8,6.0,95,0.00,CLR,,0.00,WeatherDisplay:10.37,2013-09-13 07:24:00,
2013-09-13 00:29:00,57.0,55.6,29.92,SSE,158,5.4,6.9,95,0.00,CLR,,0.00,WeatherDisplay:10.37,2013-09-13 07:29:00,
2013-09-13 00:34:00,57.0,55.6,29.92,North,11,0.7,3.5,95,0.00,CLR,,0.00,WeatherDisplay:10.37,2013-09-13 07:34:00,
2013-09-13 00:39:00,57.0,55.9,29.92,SE,135,3.8,6.9,96,0.00,CLR,,0.00,WeatherDisplay:10.37,2013-09-13 07:39:00,
2013-09-13 00:44:00,57.0,55.9,29.92,SE,135,5.4,8.3,96,0.00,CLR,,0.00,WeatherDisplay:10.37,2013-09-13 07:44:00,
2013-09-13 00:49:00,57.0,55.9,29.92,WSW,248,3.1,5.8,96,0.00,CLR,,0.00,WeatherDisplay:10.37,2013-09-13 07:49:00,
2013-09-13 00:54:00,57.0,55.9,29.92,WSW,248,1.6,4.6,96,0.00,CLR,,0.00,WeatherDisplay:10.37,2013-09-13 07:54:00,
2013-09-13 00:59:00,57.0,55.9,29.93,NNW,338,3.1,6.0,96,0.00,CLR,,0.00,WeatherDisplay:10.37,2013-09-13 07:59:00,
2013-09-13 01:04:00,57.0,55.9,29.92,SE,135,3.8,6.9,96,0.00,CLR,,0.00,WeatherDisplay:10.37,2013-09-13 08:04:00,
2013-09-13 01:09:00,57.0,55.9,29.93,North,6,0.0,6.9,96,0.00,CLR,,0.00,WeatherDisplay:10.37,2013-09-13 08:09:00,
2013-09-13 01:14:00,57.0,55.9,29.93,ESE,112,0.7,4.6,96,0.00,CLR,,0.00,WeatherDisplay:10.37,2013-09-13 08:14:00,
2013-09-13 01:19:00,57.0,55.9,29.93,South,180,2.2,5.8,96,0.00,CLR,,0.00,WeatherDisplay:10.37,2013-09-13 08:19:00,
2013-09-13 01:24:00,57.2,55.8,29.93,SSW,202,0.0,2.3,95,0.00,CLR,,0.00,WeatherDisplay:10.37,2013-09-13 08:24:00,
2013-09-13 01:29:00,56.8,55.7,29.93,WSW,248,0.0,3.5,96,0.00,CLR,,0.00,WeatherDisplay:10.37,2013-09-13 08:29:00,
2013-09-13 01:34:00,57.2,55.8,29.93,WSW,248,0.0,4.6,95,0.00,CLR,,0.00,WeatherDisplay:10.37,2013-09-13 08:34:00,
2013-09-13 01:39:00,57.2,55.8,29.93,North,8,1.6,5.8,95,0.00,CLR,,0.00,WeatherDisplay:10.37,2013-09-13 08:39:00,
2013-09-13 01:44:00,57.2,55.8,29.93,WNW,292,0.7,2.3,95,0.00,CLR,,0.00,WeatherDisplay:10.37,2013-09-13 08:44:00,
2013-09-13 01:49:00,57.4,56.0,29.93,East,90,2.2,3.5,95,0.00,CLR,,0.00,WeatherDisplay:10.37,2013-09-13 08:49:00,
2013-09-13 01:54:00,57.2,55.8,29.93,WSW,248,0.0,3.5,95,0.00,CLR,,0.00,WeatherDisplay:10.37,2013-09-13 08:54:00,
2013-09-13 01:59:00,57.4,56.0,29.93,ESE,112,1.6,3.5,95,0.00,CLR,,0.00,WeatherDisplay:10.37,2013-09-13 08:59:00,
2013-09-13 02:04:00,57.4,56.0,29.93,WSW,248,0.7,3.5,95,0.00,CLR,,0.00,WeatherDisplay:10.37,2013-09-13 09:04:00,
2013-09-13 02:09:00,57.6,56.1,29.93,NE,45,2.2,5.8,95,0.00,CLR,,0.00,WeatherDisplay:10.37,2013-09-13 09:09:00,
2013-09-13 02:14:00,57.6,56.1,29.93,South,180,1.6,3.8,95,0.00,CLR,,0.00,WeatherDisplay:10.37,2013-09-13 09:14:00,
2013-09-13 02:19:00,57.7,56.6,29.93,North,8,3.1,5.8,96,0.00,CLR,,0.00,WeatherDisplay:10.37,2013-09-13 09:19:00,
2013-09-13 02:24:00,57.7,56.6,29.93,South,180,3.1,5.8,96,0.00,CLR,,0.00,WeatherDisplay:10.37,2013-09-13 09:24:00,
2013-09-13 02:29:00,57.9,56.8,29.93,North,0,2.2,6.9,96,0.00,CLR,,0.00,WeatherDisplay:10.37,2013-09-13 09:29:00,
2013-09-13 02:34:00,57.9,56.8,29.93,SSE,158,2.2,5.8,96,0.00,CLR,,0.00,WeatherDisplay:10.37,2013-09-13 09:34:00,
2013-09-13 02:39:00,58.1,57.0,29.93,WSW,248,1.6,3.5,96,0.00,CLR,,0.00,WeatherDisplay:10.37,2013-09-13 09:39:00,
2013-09-13 02:44:00,58.1,57.0,29.93,North,0,1.6,8.1,96,0.00,CLR,,0.00,WeatherDisplay:10.37,2013-09-13 09:44:00,
2013-09-13 02:49:00,58.1,57.0,29.94,NNE,14,4.5,8.1,96,0.00,CLR,,0.00,WeatherDisplay:10.37,2013-09-13 09:49:00,
2013-09-13 02:54:00,58.1,57.0,29.93,WSW,248,0.7,4.6,96,0.00,CLR,,0.00,WeatherDisplay:10.37,2013-09-13 09:54:00,
2013-09-13 02:59:00,58.1,57.0,29.93,West,270,3.1,4.5,96,0.00,CLR,,0.00,WeatherDisplay:10.37,2013-09-13 09:59:00,
2013-09-13 03:04:00,58.1,57.0,29.93,South,180,2.2,3.8,96,0.00,CLR,,0.00,WeatherDisplay:10.37,2013-09-13 10:04:00,
2013-09-13 03:09:00,57.9,56.8,29.93,East,90,3.8,6.0,96,0.00,CLR,,0.00,WeatherDisplay:10.37,2013-09-13 10:09:00,
2013-09-13 03:14:00,57.9,56.8,29.94,South,180,2.2,4.6,96,0.00,CLR,,0.00,WeatherDisplay:10.37,2013-09-13 10:14:00,
2013-09-13 03:19:00,57.7,56.6,29.93,WSW,248,3.1,5.4,96,0.00,CLR,,0.00,WeatherDisplay:10.37,2013-09-13 10:19:00,
2013-09-13 03:24:00,57.7,56.6,29.93,WSW,248,3.8,6.0,96,0.00,CLR,,0.00,WeatherDisplay:10.37,2013-09-13 10:24:00,
2013-09-13 03:29:00,57.7,56.6,29.94,WSW,248,1.6,3.5,96,0.00,CLR,,0.00,WeatherDisplay:10.37,2013-09-13 10:29:00,
2013-09-13 03:34:00,57.7,56.6,29.94,WSW,248,1.6,3.8,96,0.00,CLR,,0.00,WeatherDisplay:10.37,2013-09-13 10:34:00,
2013-09-13 03:39:00,57.9,56.8,29.94,WSW,248,0.7,3.5,96,0.00,CLR,,0.00,WeatherDisplay:10.37,2013-09-13 10:39:00,
2013-09-13 03:44:00,57.9,56.8,29.94,NNE,12,0.0,1.1,96,0.00,CLR,,0.00,WeatherDisplay:10.37,2013-09-13 10:44:00,
2013-09-13 03:49:00,57.9,56.8,29.94,South,180,1.6,8.1,96,0.00,CLR,,0.00,WeatherDisplay:10.37,2013-09-13 10:49:00,
2013-09-13 03:54:00,57.9,56.8,29.94,SE,135,1.6,6.9,96,0.00,CLR,,0.00,WeatherDisplay:10.37,2013-09-13 10:54:00,
2013-09-13 03:59:00,57.9,56.8,29.94,SSW,202,1.6,5.8,96,0.00,CLR,,0.00,WeatherDisplay:10.37,2013-09-13 10:59:00,
2013-09-13 04:04:00,57.9,56.8,29.94,SSE,158,3.1,5.8,96,0.00,CLR,,0.00,WeatherDisplay:10.37,2013-09-13 11:04:00,
2013-09-13 04:09:00,57.9,56.8,29.94,SSE,158,1.6,5.8,96,0.00,CLR,,0.00,WeatherDisplay:10.37,2013-09-13 11:09:00,
2013-09-13 04:14:00,58.1,57.0,29.94,North,0,3.8,8.1,96,0.00,CLR,,0.00,WeatherDisplay:10.37,2013-09-13 11:14:00,
2013-09-13 04:19:00,58.1,57.0,29.94,NW,315,3.8,6.9,96,0.00,CLR,,0.00,WeatherDisplay:10.37,2013-09-13 11:19:00,
2013-09-13 04:24:00,57.9,56.8,29.94,ENE,68,3.8,8.1,96,0.00,CLR,,0.00,WeatherDisplay:10.37,2013-09-13 11:24:00,
2013-09-13 04:29:00,57.9,56.8,29.94,WNW,292,4.5,9.2,96,0.00,CLR,,0.00,WeatherDisplay:10.37,2013-09-13 11:29:00,
2013-09-13 04:34:00,57.7,56.6,29.94,NNE,12,9.8,12.1,96,0.00,CLR,,0.00,WeatherDisplay:10.37,2013-09-13 11:34:00,
2013-09-13 04:39:00,57.7,56.6,29.94,SSW,202,5.4,9.2,96,0.00,CLR,,0.00,WeatherDisplay:10.37,2013-09-13 11:39:00,
2013-09-13 04:44:00,57.9,56.8,29.94,NW,315,4.5,8.1,96,0.00,CLR,,0.00,WeatherDisplay:10.37,2013-09-13 11:44:00,
2013-09-13 04:49:00,57.9,56.8,29.94,NW,315,3.1,6.0,96,0.00,CLR,,0.00,WeatherDisplay:10.37,2013-09-13 11:49:00,
2013-09-13 04:54:00,57.9,56.8,29.94,SE,135,6.0,8.3,96,0.00,CLR,,0.00,WeatherDisplay:10.37,2013-09-13 11:54:00,
2013-09-13 04:59:00,58.1,57.0,29.94,WSW,248,2.2,8.1,96,0.00,CLR,,0.00,WeatherDisplay:10.37,2013-09-13 11:59:00,
2013-09-13 05:04:00,58.1,57.0,29.94,South,180,3.8,5.8,96,0.00,CLR,,0.00,WeatherDisplay:10.37,2013-09-13 12:04:00,
2013-09-13 05:09:00,58.1,57.0,29.94,South,180,3.1,5.8,96,0.00,CLR,,0.00,WeatherDisplay:10.37,2013-09-13 12:09:00,
2013-09-13 05:14:00,58.1,57.3,29.94,WSW,248,4.5,9.2,97,0.00,CLR,,0.00,WeatherDisplay:10.37,2013-09-13 12:14:00,
2013-09-13 05:19:00,58.1,57.3,29.94,North,8,4.5,6.9,97,0.00,CLR,,0.00,WeatherDisplay:10.37,2013-09-13 12:19:00,
2013-09-13 05:26:00,58.1,57.3,29.94,North,0,0.0,4.6,97,0.00,CLR,,0.00,WeatherDisplay:10.37,2013-09-13 12:26:00,
2013-09-13 05:31:00,58.3,57.4,29.94,West,270,3.1,8.1,97,0.00,CLR,,0.00,WeatherDisplay:10.37,2013-09-13 12:31:00,
2013-09-13 05:36:00,58.3,57.4,29.94,SE,135,1.6,5.8,97,0.00,CLR,,0.00,WeatherDisplay:10.37,2013-09-13 12:36:00,
2013-09-13 05:41:00,58.3,57.4,29.94,WNW,292,0.7,4.6,97,0.00,CLR,,0.00,WeatherDisplay:10.37,2013-09-13 12:41:00,
2013-09-13 05:46:00,58.5,57.6,29.94,ESE,112,2.2,6.9,97,0.00,CLR,,0.00,WeatherDisplay:10.37,2013-09-13 12:46:00,
2013-09-13 05:51:00,58.3,57.4,29.94,WSW,248,2.2,5.8,97,0.00,CLR,,0.00,WeatherDisplay:10.37,2013-09-13 12:51:00,
2013-09-13 05:56:00,58.5,57.6,29.94,ESE,112,0.7,5.8,97,0.00,CLR,,0.00,WeatherDisplay:10.37,2013-09-13 12:56:00,
2013-09-13 06:01:00,58.5,57.6,29.94,North,7,3.1,5.8,97,0.00,CLR,,0.00,WeatherDisplay:10.37,2013-09-13 13:01:00,
2013-09-13 06:06:00,58.5,57.6,29.94,ESE,112,2.2,5.8,97,0.00,CLR,,0.00,WeatherDisplay:10.37,2013-09-13 13:06:00,
2013-09-13 06:11:00,58.5,57.6,29.94,WSW,248,3.1,8.1,97,0.00,CLR,,0.00,WeatherDisplay:10.37,2013-09-13 13:11:00,
2013-09-13 06:16:00,58.6,57.8,29.94,SSE,158,3.1,6.0,97,0.00,CLR,,0.00,WeatherDisplay:10.37,2013-09-13 13:16:00,
2013-09-13 06:21:00,58.6,57.8,29.94,WSW,248,3.8,8.1,97,0.01,RA,,0.01,WeatherDisplay:10.37,2013-09-13 13:21:00,
2013-09-13 06:26:00,58.6,57.8,29.95,ENE,68,3.1,5.4,97,0.01,RA,,0.01,WeatherDisplay:10.37,2013-09-13 13:26:00,
2013-09-13 06:31:00,58.8,58.0,29.95,SSE,158,1.6,5.8,97,0.01,CLR,,0.01,WeatherDisplay:10.37,2013-09-13 13:31:00,
2013-09-13 06:36:00,58.8,58.0,29.95,North,8,0.7,3.5,97,0.01,CLR,,0.01,WeatherDisplay:10.37,2013-09-13 13:36:00,
2013-09-13 06:41:00,58.8,58.0,29.95,WSW,248,1.6,3.5,97,0.01,CLR,,0.01,WeatherDisplay:10.37,2013-09-13 13:41:00,
2013-09-13 06:46:00,58.8,58.0,29.95,SSE,158,0.0,2.3,97,0.01,CLR,,0.01,WeatherDisplay:10.37,2013-09-13 13:46:00,
2013-09-13 06:51:00,58.6,57.8,29.95,NNE,12,0.0,3.5,97,0.01,CLR,,0.01,WeatherDisplay:10.37,2013-09-13 13:51:00,
2013-09-13 06:56:00,58.8,58.0,29.95,South,180,2.2,3.5,97,0.01,CLR,,0.01,WeatherDisplay:10.37,2013-09-13 13:56:00,
2013-09-13 07:01:00,58.6,57.8,29.95,SSE,158,0.7,3.5,97,0.01,CLR,,0.01,WeatherDisplay:10.37,2013-09-13 14:01:00,
2013-09-13 07:06:00,58.3,57.4,29.95,North,6,0.0,2.3,97,0.01,CLR,,0.01,WeatherDisplay:10.37,2013-09-13 14:06:00,
2013-09-13 07:11:00,58.3,57.4,29.94,SE,135,1.6,2.3,97,0.01,CLR,,0.01,WeatherDisplay:10.37,2013-09-13 14:11:00,
2013-09-13 07:16:00,58.1,57.3,29.94,East,90,0.7,3.5,97,0.01,CLR,,0.01,WeatherDisplay:10.37,2013-09-13 14:16:00,
2013-09-13 07:21:00,58.1,57.3,29.94,NNW,338,0.0,2.3,97,0.00,CLR,,0.01,WeatherDisplay:10.37,2013-09-13 14:21:00,
2013-09-13 07:26:00,57.9,57.1,29.94,ENE,68,1.6,3.5,97,0.00,CLR,,0.01,WeatherDisplay:10.37,2013-09-13 14:26:00,
2013-09-13 07:31:00,57.9,56.8,29.95,SW,225,0.7,2.3,96,0.00,CLR,,0.01,WeatherDisplay:10.37,2013-09-13 14:31:00,
2013-09-13 07:36:00,57.9,56.8,29.95,North,6,0.0,2.3,96,0.00,CLR,,0.01,WeatherDisplay:10.37,2013-09-13 14:36:00,
2013-09-13 07:41:00,57.9,56.8,29.95,North,2,0.0,2.3,96,0.00,CLR,,0.01,WeatherDisplay:10.37,2013-09-13 14:41:00,
2013-09-13 07:46:00,57.9,56.8,29.95,NNW,338,0.0,1.6,96,0.00,CLR,,0.01,WeatherDisplay:10.37,2013-09-13 14:46:00,
2013-09-13 07:51:00,57.9,56.8,29.95,North,0,0.0,1.1,96,0.00,CLR,,0.01,WeatherDisplay:10.37,2013-09-13 14:51:00,
2013-09-13 07:56:00,57.9,56.8,29.95,NNW,338,2.2,3.8,96,0.00,CLR,,0.01,WeatherDisplay:10.37,2013-09-13 14:56:00,
2013-09-13 08:01:00,58.1,57.0,29.95,North,5,0.7,1.6,96,0.00,CLR,,0.01,WeatherDisplay:10.37,2013-09-13 15:01:00,
2013-09-13 08:06:00,58.1,57.0,29.95,North,0,0.0,2.3,96,0.00,CLR,,0.01,WeatherDisplay:10.37,2013-09-13 15:06:00,
2013-09-13 08:11:00,58.1,57.0,29.95,North,9,0.0,2.3,96,0.00,CLR,,0.01,WeatherDisplay:10.37,2013-09-13 15:11:00,
2013-09-13 08:16:00,58.1,57.0,29.95,North,1,0.0,1.1,96,0.00,CLR,,0.01,WeatherDisplay:10.37,2013-09-13 15:16:00,
2013-09-13 08:21:00,58.3,57.4,29.95,SW,225,0.0,2.3,97,0.00,CLR,,0.01,WeatherDisplay:10.37,2013-09-13 15:21:00,
2013-09-13 08:26:00,58.5,57.6,29.95,North,0,0.0,1.1,97,0.00,CLR,,0.01,WeatherDisplay:10.37,2013-09-13 15:26:00,
2013-09-13 08:31:00,58.5,57.6,29.95,North,0,0.0,1.1,97,0.00,CLR,,0.01,WeatherDisplay:10.37,2013-09-13 15:31:00,
2013-09-13 08:36:00,58.8,58.0,29.95,North,8,0.0,2.3,97,0.00,CLR,,0.01,WeatherDisplay:10.37,2013-09-13 15:36:00,
2013-09-13 08:41:00,59.0,57.9,29.95,North,0,0.0,1.6,96,0.00,CLR,,0.01,WeatherDisplay:10.37,2013-09-13 15:41:00,
2013-09-13 08:46:00,59.2,58.0,29.95,North,0,0.0,0.0,96,0.00,CLR,,0.01,WeatherDisplay:10.37,2013-09-13 15:46:00,
2013-09-13 08:51:00,59.4,58.2,29.95,North,0,0.0,0.0,96,0.00,CLR,,0.01,WeatherDisplay:10.37,2013-09-13 15:51:00,
2013-09-13 08:56:00,59.5,58.4,29.95,North,0,0.0,0.7,96,0.00,CLR,,0.01,WeatherDisplay:10.37,2013-09-13 15:56:00,
2013-09-13 09:01:00,59.5,58.4,29.95,North,0,0.0,1.6,96,0.00,CLR,,0.01,WeatherDisplay:10.37,2013-09-13 16:01:00,
2013-09-13 09:06:00,59.7,58.6,29.95,SE,135,1.6,2.3,96,0.00,CLR,,0.01,WeatherDisplay:10.37,2013-09-13 16:06:00,
2013-09-13 09:11:00,59.7,58.6,29.95,SE,135,0.0,3.5,96,0.00,CLR,,0.01,WeatherDisplay:10.37,2013-09-13 16:11:00,
2013-09-13 09:16:00,59.7,58.6,29.95,SSE,158,0.7,2.3,96,0.00,CLR,,0.01,WeatherDisplay:10.37,2013-09-13 16:16:00,
2013-09-13 09:21:00,59.9,58.8,29.95,SSW,202,0.7,2.3,96,0.00,CLR,,0.01,WeatherDisplay:10.37,2013-09-13 16:21:00,
2013-09-13 09:26:00,59.9,58.8,29.95,NNE,22,2.2,3.8,96,0.00,CLR,,0.01,WeatherDisplay:10.37,2013-09-13 16:26:00,
2013-09-13 09:31:00,59.9,58.8,29.95,NE,45,0.0,3.5,96,0.00,CLR,,0.01,WeatherDisplay:10.37,2013-09-13 16:31:00,
2013-09-13 09:36:00,59.9,58.8,29.95,ESE,112,2.2,3.5,96,0.00,CLR,,0.01,WeatherDisplay:10.37,2013-09-13 16:36:00,
2013-09-13 09:41:00,59.9,58.8,29.95,North,11,0.0,3.5,96,0.00,CLR,,0.01,WeatherDisplay:10.37,2013-09-13 16:41:00,
2013-09-13 09:46:00,59.9,58.8,29.95,North,4,0.7,2.3,96,0.00,CLR,,0.01,WeatherDisplay:10.37,2013-09-13 16:46:00,
2013-09-13 09:51:00,59.9,58.8,29.95,North,0,0.7,3.1,96,0.00,CLR,,0.01,WeatherDisplay:10.37,2013-09-13 16:51:00,
2013-09-13 09:56:00,59.9,58.8,29.95,SSE,158,0.0,1.6,96,0.00,CLR,,0.01,WeatherDisplay:10.37,2013-09-13 16:56:00,
2013-09-13 10:01:00,59.9,58.8,29.95,NE,45,0.0,3.5,96,0.00,CLR,,0.01,WeatherDisplay:10.37,2013-09-13 17:01:00,
2013-09-13 10:06:00,60.1,58.9,29.95,ENE,68,0.7,3.5,96,0.00,CLR,,0.01,WeatherDisplay:10.37,2013-09-13 17:06:00,
2013-09-13 10:11:00,60.3,59.1,29.95,NE,45,1.6,3.5,96,0.00,CLR,,0.01,WeatherDisplay:10.37,2013-09-13 17:11:00,
2013-09-13 10:16:00,60.4,59.3,29.95,West,270,0.7,4.6,96,0.00,CLR,,0.01,WeatherDisplay:10.37,2013-09-13 17:16:00,
2013-09-13 10:21:00,60.3,59.1,29.95,North,0,0.0,3.8,96,0.00,CLR,,0.01,WeatherDisplay:10.37,2013-09-13 17:21:00,
2013-09-13 10:26:00,60.4,59.3,29.95,East,90,0.0,3.5,96,0.00,CLR,,0.01,WeatherDisplay:10.37,2013-09-13 17:26:00,
2013-09-13 10:31:00,60.4,59.3,29.95,NNE,22,2.2,4.6,96,0.00,CLR,,0.01,WeatherDisplay:10.37,2013-09-13 17:31:00,
2013-09-13 10:36:00,60.6,59.5,29.94,SE,135,0.0,3.5,96,0.00,CLR,,0.01,WeatherDisplay:10.37,2013-09-13 17:36:00,
2013-09-13 10:41:00,61.0,59.5,29.95,North,0,2.2,4.6,95,0.00,CLR,,0.01,WeatherDisplay:10.37,2013-09-13 17:41:00,
2013-09-13 10:46:00,61.2,59.7,29.95,North,0,2.2,3.8,95,0.00,CLR,,0.01,WeatherDisplay:10.37,2013-09-13 17:46:00,
2013-09-13 10:51:00,61.2,59.7,29.95,South,180,0.0,3.5,95,0.00,CLR,,0.01,WeatherDisplay:10.37,2013-09-13 17:51:00,
2013-09-13 10:56:00,61.3,59.9,29.95,North,1,1.6,3.5,95,0.00,CLR,,0.01,WeatherDisplay:10.37,2013-09-13 17:56:00,
2013-09-13 11:01:00,61.5,60.1,29.94,North,6,2.2,3.5,95,0.00,CLR,,0.01,WeatherDisplay:10.37,2013-09-13 18:01:00,
2013-09-13 11:06:00,61.7,60.3,29.94,SE,135,0.0,3.5,95,0.00,CLR,,0.01,WeatherDisplay:10.37,2013-09-13 18:06:00,
2013-09-13 11:11:00,61.9,60.4,29.94,South,180,0.7,4.6,95,0.00,CLR,,0.01,WeatherDisplay:10.37,2013-09-13 18:11:00,
2013-09-13 11:16:00,61.9,60.4,29.94,NNE,22,1.6,4.6,95,0.00,CLR,,0.01,WeatherDisplay:10.37,2013-09-13 18:16:00,
2013-09-13 11:21:00,61.9,60.4,29.94,SSE,158,0.0,3.5,95,0.00,CLR,,0.01,WeatherDisplay:10.37,2013-09-13 18:21:00,
2013-09-13 11:26:00,62.1,60.6,29.93,NE,45,0.0,3.5,95,0.00,CLR,,0.01,WeatherDisplay:10.37,2013-09-13 18:26:00,
2013-09-13 11:31:00,62.1,60.6,29.94,North,6,0.7,3.5,95,0.00,CLR,,0.01,WeatherDisplay:10.37,2013-09-13 18:31:00,
2013-09-13 11:36:00,62.2,60.8,29.94,NE,45,0.0,2.3,95,0.00,CLR,,0.01,WeatherDisplay:10.37,2013-09-13 18:36:00,
2013-09-13 11:41:00,62.4,60.7,29.94,North,6,0.0,1.1,94,0.00,CLR,,0.01,WeatherDisplay:10.37,2013-09-13 18:41:00,
2013-09-13 11:46:00,62.6,60.5,29.94,SSW,202,0.7,3.5,93,0.00,CLR,,0.01,WeatherDisplay:10.37,2013-09-13 18:46:00,
2013-09-13 11:51:00,62.6,60.5,29.94,NE,45,0.0,1.6,93,0.00,CLR,,0.01,WeatherDisplay:10.37,2013-09-13 18:51:00,
2013-09-13 11:56:00,62.6,60.5,29.94,ENE,68,2.2,3.8,93,0.00,CLR,,0.01,WeatherDisplay:10.37,2013-09-13 18:56:00,
2013-09-13 12:01:00,62.1,60.0,29.93,South,180,0.0,3.5,93,0.00,CLR,,0.01,WeatherDisplay:10.37,2013-09-13 19:01:00,
2013-09-13 12:06:00,61.7,59.4,29.93,WNW,292,0.0,2.3,92,0.00,CLR,,0.01,WeatherDisplay:10.37,2013-09-13 19:06:00,
2013-09-13 12:11:00,61.5,59.2,29.93,WSW,248,0.7,3.5,92,0.00,CLR,,0.01,WeatherDisplay:10.37,2013-09-13 19:11:00,
2013-09-13 12:16:00,61.2,58.5,29.93,WSW,248,0.7,4.6,91,0.00,CLR,,0.01,WeatherDisplay:10.37,2013-09-13 19:16:00,
2013-09-13 12:21:00,61.2,58.5,29.93,WNW,292,0.0,3.5,91,0.00,CLR,,0.01,WeatherDisplay:10.37,2013-09-13 19:21:00,
2013-09-13 12:26:00,61.2,58.5,29.93,SSE,158,1.6,3.5,91,0.00,CLR,,0.01,WeatherDisplay:10.37,2013-09-13 19:26:00,
2013-09-13 12:31:00,60.8,58.2,29.93,WSW,248,1.6,4.6,91,0.00,CLR,,0.01,WeatherDisplay:10.37,2013-09-13 19:31:00,
2013-09-13 12:36:00,60.8,58.2,29.93,WNW,292,0.0,2.3,91,0.00,CLR,,0.01,WeatherDisplay:10.37,2013-09-13 19:36:00,
2013-09-13 12:41:00,60.8,58.2,29.93,NNE,15,0.0,2.3,91,0.00,CLR,,0.01,WeatherDisplay:10.37,2013-09-13 19:41:00,
2013-09-13 12:46:00,60.8,58.5,29.93,WNW,292,0.0,1.6,92,0.00,CLR,,0.01,WeatherDisplay:10.37,2013-09-13 19:46:00,
2013-09-13 12:51:00,61.0,58.6,29.93,WNW,292,0.0,1.6,92,0.00,CLR,,0.01,WeatherDisplay:10.37,2013-09-13 19:51:00,
2013-09-13 12:56:00,61.2,58.8,29.93,SSW,202,0.7,2.3,92,0.00,CLR,,0.01,WeatherDisplay:10.37,2013-09-13 19:56:00,
2013-09-13 13:01:00,61.2,58.8,29.93,WNW,292,0.0,1.1,92,0.00,CLR,,0.01,WeatherDisplay:10.37,2013-09-13 20:01:00,
2013-09-13 13:06:00,61.3,59.0,29.93,North,2,0.0,2.3,92,0.00,CLR,,0.01,WeatherDisplay:10.37,2013-09-13 20:06:00,
2013-09-13 13:11:00,61.5,59.2,29.93,North,2,1.6,3.8,92,0.00,CLR,,0.01,WeatherDisplay:10.37,2013-09-13 20:11:00,
2013-09-13 13:16:00,61.9,59.5,29.93,North,0,0.0,0.7,92,0.00,CLR,,0.01,WeatherDisplay:10.37,2013-09-13 20:16:00,
2013-09-13 13:21:00,61.9,59.5,29.93,SSW,202,0.0,3.5,92,0.00,CLR,,0.01,WeatherDisplay:10.37,2013-09-13 20:21:00,
2013-09-13 13:26:00,61.9,59.5,29.92,WSW,248,0.0,2.3,92,0.00,CLR,,0.01,WeatherDisplay:10.37,2013-09-13 20:26:00,
2013-09-13 13:31:00,61.9,59.5,29.93,ENE,68,0.7,3.5,92,0.00,CLR,,0.01,WeatherDisplay:10.37,2013-09-13 20:31:00,
2013-09-13 13:36:00,61.7,59.0,29.92,SW,225,0.7,3.5,91,0.00,CLR,,0.01,WeatherDisplay:10.37,2013-09-13 20:36:00,
2013-09-13 13:41:00,61.3,58.7,29.92,WSW,248,2.2,4.6,91,0.00,CLR,,0.01,WeatherDisplay:10.37,2013-09-13 20:41:00,
2013-09-13 13:46:00,61.2,58.2,29.92,NNW,338,1.6,3.5,90,0.00,CLR,,0.01,WeatherDisplay:10.37,2013-09-13 20:46:00,
2013-09-13 13:51:00,60.8,57.8,29.92,WNW,292,0.0,3.5,90,0.00,CLR,,0.01,WeatherDisplay:10.37,2013-09-13 20:51:00,
2013-09-13 13:57:00,60.8,57.8,29.92,NNE,22,3.1,4.6,90,0.00,CLR,,0.01,WeatherDisplay:10.37,2013-09-13 20:57:00,
2013-09-13 14:02:00,60.8,57.8,29.92,North,0,0.7,3.5,90,0.00,CLR,,0.01,WeatherDisplay:10.37,2013-09-13 21:02:00,
2013-09-13 14:07:00,60.8,57.8,29.92,SSW,202,1.6,3.5,90,0.00,CLR,,0.01,WeatherDisplay:10.37,2013-09-13 21:07:00,
2013-09-13 14:12:00,60.6,58.0,29.92,WSW,248,0.0,3.5,91,0.00,CLR,,0.01,WeatherDisplay:10.37,2013-09-13 21:12:00,
2013-09-13 14:17:00,60.8,57.8,29.92,SE,135,0.7,3.5,90,0.00,CLR,,0.01,WeatherDisplay:10.37,2013-09-13 21:17:00,
2013-09-13 14:22:00,60.8,58.2,29.91,WSW,248,0.7,3.5,91,0.00,CLR,,0.01,WeatherDisplay:10.37,2013-09-13 21:22:00,
2013-09-13 14:27:00,60.8,58.2,29.91,WNW,292,0.0,2.3,91,0.00,CLR,,0.01,WeatherDisplay:10.37,2013-09-13 21:27:00,
2013-09-13 14:32:00,61.0,58.3,29.91,WSW,248,0.0,2.3,91,0.00,CLR,,0.01,WeatherDisplay:10.37,2013-09-13 21:32:00,
2013-09-13 14:37:00,61.2,58.5,29.91,SE,135,2.2,3.5,91,0.00,CLR,,0.01,WeatherDisplay:10.37,2013-09-13 21:37:00,
2013-09-13 14:42:00,61.3,58.7,29.91,ENE,68,1.6,3.5,91,0.00,CLR,,0.01,WeatherDisplay:10.37,2013-09-13 21:42:00,
2013-09-13 14:47:00,61.5,58.9,29.91,WSW,248,0.0,1.6,91,0.00,CLR,,0.01,WeatherDisplay:10.37,2013-09-13 21:47:00,
2013-09-13 14:52:00,61.7,59.0,29.91,WNW,292,0.0,2.3,91,0.00,CLR,,0.01,WeatherDisplay:10.37,2013-09-13 21:52:00,
2013-09-13 14:57:00,61.9,59.2,29.91,South,180,0.7,3.5,91,0.00,CLR,,0.01,WeatherDisplay:10.37,2013-09-13 21:57:00,
2013-09-13 15:02:00,62.1,59.4,29.91,WSW,248,0.0,2.3,91,0.00,CLR,,0.01,WeatherDisplay:10.37,2013-09-13 22:02:00,
2013-09-13 15:07:00,62.2,59.6,29.90,South,180,1.6,3.5,91,0.00,CLR,,0.01,WeatherDisplay:10.37,2013-09-13 22:07:00,
2013-09-13 15:12:00,62.2,59.3,29.90,WSW,248,1.6,3.8,90,0.00,CLR,,0.01,WeatherDisplay:10.37,2013-09-13 22:12:00,
2013-09-13 15:17:00,62.1,59.1,29.90,WSW,248,0.7,3.5,90,0.00,CLR,,0.01,WeatherDisplay:10.37,2013-09-13 22:17:00,
2013-09-13 15:22:00,62.1,58.8,29.90,SSW,202,0.0,2.3,89,0.00,CLR,,0.01,WeatherDisplay:10.37,2013-09-13 22:22:00,
2013-09-13 15:27:00,61.9,58.6,29.90,WNW,292,0.7,3.5,89,0.00,CLR,,0.01,WeatherDisplay:10.37,2013-09-13 22:27:00,
2013-09-13 15:32:00,61.9,58.6,29.90,WNW,292,0.0,3.5,89,0.00,CLR,,0.01,WeatherDisplay:10.37,2013-09-13 22:32:00,
2013-09-13 15:37:00,61.7,58.4,29.89,South,180,0.7,2.3,89,0.00,CLR,,0.01,WeatherDisplay:10.37,2013-09-13 22:37:00,
2013-09-13 15:42:00,61.5,58.2,29.89,SE,135,0.7,2.3,89,0.00,CLR,,0.01,WeatherDisplay:10.37,2013-09-13 22:42:00,
2013-09-13 15:47:00,61.5,58.2,29.89,NNE,12,0.7,2.3,89,0.00,CLR,,0.01,WeatherDisplay:10.37,2013-09-13 22:47:00,
2013-09-13 15:52:00,61.3,58.1,29.89,SSW,202,1.6,2.3,89,0.00,CLR,,0.01,WeatherDisplay:10.37,2013-09-13 22:52:00,
2013-09-13 15:57:00,61.2,57.9,29.89,NNE,12,0.7,3.5,89,0.00,CLR,,0.01,WeatherDisplay:10.37,2013-09-13 22:57:00,
2013-09-13 16:02:00,61.2,57.9,29.89,East,90,0.7,2.3,89,0.00,CLR,,0.01,WeatherDisplay:10.37,2013-09-13 23:02:00,
2013-09-13 16:07:00,61.3,58.1,29.89,North,0,0.0,3.5,89,0.00,CLR,,0.01,WeatherDisplay:10.37,2013-09-13 23:07:00,
2013-09-13 16:12:00,61.3,58.1,29.89,WNW,292,0.7,2.2,89,0.00,CLR,,0.01,WeatherDisplay:10.37,2013-09-13 23:12:00,
2013-09-13 16:17:00,61.3,58.1,29.89,South,180,1.6,3.5,89,0.00,CLR,,0.01,WeatherDisplay:10.37,2013-09-13 23:17:00,
2013-09-13 16:22:00,61.2,57.9,29.89,SE,135,0.7,3.5,89,0.00,CLR,,0.01,WeatherDisplay:10.37,2013-09-13 23:22:00,
2013-09-13 16:27:00,61.2,57.9,29.89,NE,45,0.0,2.3,89,0.00,CLR,,0.01,WeatherDisplay:10.37,2013-09-13 23:27:00,
2013-09-13 16:32:00,61.2,57.9,29.88,West,270,1.6,3.5,89,0.00,CLR,,0.01,WeatherDisplay:10.37,2013-09-13 23:32:00,
2013-09-13 16:37:00,61.2,57.9,29.88,WSW,248,1.6,3.5,89,0.00,CLR,,0.01,WeatherDisplay:10.37,2013-09-13 23:37:00,
2013-09-13 16:42:00,61.3,58.1,29.88,WSW,248,0.7,2.3,89,0.00,CLR,,0.01,WeatherDisplay:10.37,2013-09-13 23:42:00,
2013-09-13 16:47:00,61.3,58.1,29.88,SE,135,0.7,3.8,89,0.00,CLR,,0.01,WeatherDisplay:10.37,2013-09-13 23:47:00,
2013-09-13 16:52:00,61.5,58.2,29.88,ENE,68,0.0,2.3,89,0.00,CLR,,0.01,WeatherDisplay:10.37,2013-09-13 23:52:00,
2013-09-13 16:57:00,61.5,58.2,29.88,WSW,248,0.0,2.3,89,0.00,CLR,,0.01,WeatherDisplay:10.37,2013-09-13 23:57:00,
2013-09-13 17:03:00,61.7,58.4,29.88,WSW,248,0.0,1.6,89,0.00,CLR,,0.01,WeatherDisplay:10.37,2013-09-14 00:03:00,
2013-09-13 17:08:00,61.7,58.4,29.88,WNW,292,0.0,2.3,89,0.00,CLR,,0.01,WeatherDisplay:10.37,2013-09-14 00:08:00,
2013-09-13 17:13:00,61.5,58.2,29.88,South,180,1.6,5.8,89,0.00,CLR,,0.01,WeatherDisplay:10.37,2013-09-14 00:13:00,
2013-09-13 17:18:00,61.3,58.1,29.88,South,180,0.0,4.6,89,0.00,CLR,,0.01,WeatherDisplay:10.37,2013-09-14 00:18:00,
2013-09-13 17:23:00,61.3,57.8,29.88,SSW,202,2.2,4.6,88,0.00,CLR,,0.01,WeatherDisplay:10.37,2013-09-14 00:23:00,
2013-09-13 17:28:00,61.0,57.4,29.88,WSW,248,0.7,3.5,88,0.00,CLR,,0.01,WeatherDisplay:10.37,2013-09-14 00:28:00,
2013-09-13 17:33:00,60.8,57.2,29.88,North,2,1.6,4.6,88,0.00,CLR,,0.01,WeatherDisplay:10.37,2013-09-14 00:33:00,
2013-09-13 17:38:00,60.6,57.4,29.88,WSW,248,2.2,5.8,89,0.00,CLR,,0.01,WeatherDisplay:10.37,2013-09-14 00:38:00,
2013-09-13 17:43:00,60.6,57.7,29.87,WSW,248,2.2,3.8,90,0.00,CLR,,0.01,WeatherDisplay:10.37,2013-09-14 00:43:00,
2013-09-13 17:48:00,60.4,57.5,29.87,South,180,1.6,3.5,90,0.00,CLR,,0.01,WeatherDisplay:10.37,2013-09-14 00:48:00,
2013-09-13 17:53:00,60.3,57.3,29.87,WSW,248,2.2,3.8,90,0.00,CLR,,0.01,WeatherDisplay:10.37,2013-09-14 00:53:00,
2013-09-13 17:58:00,60.1,57.1,29.87,East,90,0.7,2.3,90,0.00,CLR,,0.01,WeatherDisplay:10.37,2013-09-14 00:58:00,
2013-09-13 18:03:00,60.1,57.1,29.87,ENE,68,0.7,3.5,90,0.00,CLR,,0.01,WeatherDisplay:10.37,2013-09-14 01:03:00,
2013-09-13 18:08:00,60.1,57.4,29.87,SSE,158,1.6,5.8,91,0.00,CLR,,0.01,WeatherDisplay:10.37,2013-09-14 01:08:00,
2013-09-13 18:13:00,59.9,57.3,29.87,SSW,202,1.6,2.3,91,0.00,CLR,,0.01,WeatherDisplay:10.37,2013-09-14 01:13:00,
2013-09-13 18:18:00,59.7,57.1,29.87,NNE,12,0.0,3.5,91,0.00,CLR,,0.01,WeatherDisplay:10.37,2013-09-14 01:18:00,
2013-09-13 18:23:00,59.5,56.9,29.87,WNW,292,0.0,1.6,91,0.00,CLR,,0.01,WeatherDisplay:10.37,2013-09-14 01:23:00,
2013-09-13 18:28:00,59.5,56.9,29.87,WNW,292,0.7,2.3,91,0.00,CLR,,0.01,WeatherDisplay:10.37,2013-09-14 01:28:00,
2013-09-13 18:33:00,59.5,57.2,29.87,NNE,22,0.0,1.1,92,0.00,CLR,,0.01,WeatherDisplay:10.37,2013-09-14 01:33:00,
2013-09-13 18:38:00,59.5,57.2,29.87,SE,135,0.0,2.3,92,0.00,CLR,,0.01,WeatherDisplay:10.37,2013-09-14 01:38:00,
2013-09-13 18:43:00,59.5,57.2,29.86,WNW,292,0.0,2.3,92,0.00,CLR,,0.01,WeatherDisplay:10.37,2013-09-14 01:43:00,
2013-09-13 18:48:00,59.5,57.2,29.86,North,8,1.6,4.6,92,0.00,CLR,,0.01,WeatherDisplay:10.37,2013-09-14 01:48:00,
2013-09-13 18:53:00,59.5,57.2,29.86,SE,135,3.1,3.8,92,0.00,CLR,,0.01,WeatherDisplay:10.37,2013-09-14 01:53:00,
2013-09-13 18:58:00,59.5,57.2,29.86,South,180,0.7,3.5,92,0.00,CLR,,0.01,WeatherDisplay:10.37,2013-09-14 01:58:00,
2013-09-13 19:03:00,59.5,57.5,29.86,ENE,68,1.6,5.8,93,0.00,CLR,,0.01,WeatherDisplay:10.37,2013-09-14 02:03:00,
2013-09-13 19:08:00,59.5,57.5,29.86,WSW,248,0.7,3.5,93,0.00,CLR,,0.01,WeatherDisplay:10.37,2013-09-14 02:08:00,
2013-09-13 19:13:00,59.5,57.5,29.86,North,0,2.2,3.5,93,0.00,CLR,,0.01,WeatherDisplay:10.37,2013-09-14 02:13:00,
2013-09-13 19:18:00,59.5,57.5,29.86,WSW,248,0.0,2.3,93,0.00,CLR,,0.01,WeatherDisplay:10.37,2013-09-14 02:18:00,
2013-09-13 19:23:00,59.7,57.7,29.86,WSW,248,0.0,1.6,93,0.00,CLR,,0.01,WeatherDisplay:10.37,2013-09-14 02:23:00,
2013-09-13 19:28:00,59.7,57.7,29.86,WSW,248,0.0,1.6,93,0.00,CLR,,0.01,WeatherDisplay:10.37,2013-09-14 02:28:00,
2013-09-13 19:33:00,59.7,57.7,29.86,North,0,0.0,0.0,93,0.00,CLR,,0.01,WeatherDisplay:10.37,2013-09-14 02:33:00,
2013-09-13 19:38:00,59.7,57.7,29.86,NNE,15,0.0,3.5,93,0.00,CLR,,0.01,WeatherDisplay:10.37,2013-09-14 02:38:00,
2013-09-13 19:43:00,59.9,57.9,29.86,North,0,0.0,0.0,93,0.00,CLR,,0.01,WeatherDisplay:10.37,2013-09-14 02:43:00,
2013-09-13 19:48:00,59.9,57.9,29.86,North,0,0.0,0.0,93,0.00,CLR,,0.01,WeatherDisplay:10.37,2013-09-14 02:48:00,
2013-09-13 19:53:00,60.1,58.0,29.86,North,0,0.0,0.7,93,0.00,CLR,,0.01,WeatherDisplay:10.37,2013-09-14 02:53:00,
2013-09-13 19:58:00,60.1,58.0,29.86,North,0,0.0,0.0,93,0.00,CLR,,0.01,WeatherDisplay:10.37,2013-09-14 02:58:00,
2013-09-13 20:03:00,60.1,58.0,29.86,North,0,0.0,0.0,93,0.00,CLR,,0.01,WeatherDisplay:10.37,2013-09-14 03:03:00,
2013-09-13 20:08:00,60.3,58.2,29.86,North,0,0.0,0.0,93,0.00,CLR,,0.01,WeatherDisplay:10.37,2013-09-14 03:08:00,
2013-09-13 20:13:00,60.3,58.2,29.86,WSW,248,0.7,2.3,93,0.00,CLR,,0.01,WeatherDisplay:10.37,2013-09-14 03:13:00,
2013-09-13 20:18:00,60.3,58.2,29.86,North,2,0.0,1.1,93,0.00,CLR,,0.01,WeatherDisplay:10.37,2013-09-14 03:18:00,
2013-09-13 20:23:00,60.3,58.2,29.87,North,0,0.0,0.0,93,0.00,CLR,,0.01,WeatherDisplay:10.37,2013-09-14 03:23:00,
2013-09-13 20:28:00,60.4,58.4,29.87,WSW,248,0.0,1.6,93,0.00,CLR,,0.01,WeatherDisplay:10.37,2013-09-14 03:28:00,
2013-09-13 20:33:00,60.4,58.7,29.87,North,0,0.0,1.1,94,0.00,CLR,,0.01,WeatherDisplay:10.37,2013-09-14 03:33:00,
2013-09-13 20:38:00,60.4,58.7,29.86,North,0,0.0,0.0,94,0.00,CLR,,0.01,WeatherDisplay:10.37,2013-09-14 03:38:00,
2013-09-13 20:43:00,60.4,58.7,29.86,WSW,248,0.0,1.6,94,0.00,CLR,,0.01,WeatherDisplay:10.37,2013-09-14 03:43:00,
2013-09-13 20:48:00,60.4,58.7,29.87,WSW,248,0.0,1.1,94,0.00,CLR,,0.01,WeatherDisplay:10.37,2013-09-14 03:48:00,
2013-09-13 20:53:00,60.4,58.7,29.86,WSW,248,0.7,1.6,94,0.00,CLR,,0.01,WeatherDisplay:10.37,2013-09-14 03:53:00,
2013-09-13 20:58:00,60.4,58.7,29.87,North,0,0.0,1.1,94,0.00,CLR,,0.01,WeatherDisplay:10.37,2013-09-14 03:58:00,
2013-09-13 21:01:00,60.4,58.7,29.87,WSW,248,0.0,1.1,94,0.00,CLR,,0.01,WeatherDisplay:10.37,2013-09-14 04:01:00,
2013-09-13 21:02:00,60.4,58.7,29.86,WSW,248,0.0,1.1,94,0.00,CLR,,0.01,WeatherDisplay:10.37,2013-09-14 04:02:00,
2013-09-13 21:04:00,60.4,58.7,29.87,WSW,248,0.0,0.0,94,0.00,CLR,,0.01,WeatherDisplay:10.37,2013-09-14 04:04:00,
2013-09-13 21:07:00,60.4,58.7,29.87,WSW,248,0.0,0.0,94,0.00,CLR,,0.01,WeatherDisplay:10.37,2013-09-14 04:07:00,
2013-09-13 21:08:00,60.3,58.5,29.86,North,11,0.0,2.3,94,0.00,CLR,,0.01,WeatherDisplay:10.37,2013-09-14 04:08:00,
2013-09-13 21:12:00,60.3,58.5,29.87,SSW,202,0.7,2.3,94,0.00,CLR,,0.01,WeatherDisplay:10.37,2013-09-14 04:12:00,
2013-09-13 21:17:00,60.1,58.3,29.87,North,7,0.0,1.1,94,0.00,CLR,,0.01,WeatherDisplay:10.37,2013-09-14 04:17:00,
2013-09-13 21:22:00,60.1,58.3,29.87,NE,45,0.7,2.2,94,0.00,CLR,,0.01,WeatherDisplay:10.37,2013-09-14 04:22:00,
2013-09-13 21:27:00,59.9,58.2,29.87,SSW,202,1.6,3.8,94,0.00,CLR,,0.01,WeatherDisplay:10.37,2013-09-14 04:27:00,
2013-09-13 21:32:00,59.7,57.7,29.87,WSW,248,0.0,3.5,93,0.00,CLR,,0.01,WeatherDisplay:10.37,2013-09-14 04:32:00,
2013-09-13 21:37:00,59.7,58.0,29.87,WSW,248,0.0,2.3,94,0.00,CLR,,0.01,WeatherDisplay:10.37,2013-09-14 04:37:00,
2013-09-13 21:42:00,59.7,58.0,29.87,South,180,0.7,2.3,94,0.00,CLR,,0.01,WeatherDisplay:10.37,2013-09-14 04:42:00,
2013-09-13 21:47:00,59.4,57.6,29.87,East,90,1.6,3.8,94,0.00,CLR,,0.01,WeatherDisplay:10.37,2013-09-14 04:47:00,
2013-09-13 21:52:00,59.4,57.3,29.87,WSW,248,1.6,3.5,93,0.00,CLR,,0.01,WeatherDisplay:10.37,2013-09-14 04:52:00,
2013-09-13 21:57:00,59.2,57.2,29.86,WSW,248,1.6,3.5,93,0.00,CLR,,0.01,WeatherDisplay:10.37,2013-09-14 04:57:00,
2013-09-13 22:02:00,59.0,57.0,29.87,WSW,248,0.7,3.5,93,0.00,CLR,,0.01,WeatherDisplay:10.37,2013-09-14 05:02:00,
2013-09-13 22:07:00,58.8,57.1,29.87,WSW,248,1.6,3.5,94,0.00,CLR,,0.01,WeatherDisplay:10.37,2013-09-14 05:07:00,
2013-09-13 22:12:00,58.8,57.4,29.87,North,8,0.0,2.3,95,0.00,CLR,,0.01,WeatherDisplay:10.37,2013-09-14 05:12:00,
2013-09-13 22:17:00,58.6,57.2,29.87,North,8,1.6,2.3,95,0.00,CLR,,0.01,WeatherDisplay:10.37,2013-09-14 05:17:00,
2013-09-13 22:22:00,58.5,57.0,29.87,WSW,248,1.6,3.5,95,0.00,CLR,,0.01,WeatherDisplay:10.37,2013-09-14 05:22:00,
2013-09-13 22:27:00,58.5,57.0,29.87,ENE,68,1.6,2.3,95,0.00,CLR,,0.01,WeatherDisplay:10.37,2013-09-14 05:27:00,
2013-09-13 22:32:00,58.5,57.0,29.87,North,11,0.0,1.1,95,0.00,CLR,,0.01,WeatherDisplay:10.37,2013-09-14 05:32:00,
2013-09-13 22:37:00,58.5,57.0,29.88,WSW,248,0.7,2.2,95,0.00,CLR,,0.01,WeatherDisplay:10.37,2013-09-14 05:37:00,
2013-09-13 22:42:00,58.3,56.9,29.87,North,0,0.0,1.1,95,0.00,CLR,,0.01,WeatherDisplay:10.37,2013-09-14 05:42:00,
2013-09-13 22:47:00,58.3,56.9,29.87,WSW,248,0.0,2.3,95,0.00,CLR,,0.01,WeatherDisplay:10.37,2013-09-14 05:47:00,
2013-09-13 22:52:00,58.3,56.9,29.87,North,11,0.0,2.3,95,0.00,CLR,,0.01,WeatherDisplay:10.37,2013-09-14 05:52:00,
2013-09-13 22:57:00,58.3,56.9,29.87,NNE,22,0.7,2.3,95,0.00,CLR,,0.01,WeatherDisplay:10.37,2013-09-14 05:57:00,
2013-09-13 23:02:00,58.3,56.9,29.87,WSW,248,0.0,2.3,95,0.00,CLR,,0.01,WeatherDisplay:10.37,2013-09-14 06:02:00,
2013-09-13 23:07:00,58.3,56.9,29.87,WSW,248,0.0,1.6,95,0.00,CLR,,0.01,WeatherDisplay:10.37,2013-09-14 06:07:00,
2013-09-13 23:12:00,57.9,56.5,29.87,WSW,248,0.7,2.2,95,0.00,CLR,,0.01,WeatherDisplay:10.37,2013-09-14 06:12:00,
2013-09-13 23:17:00,57.9,56.5,29.87,WSW,248,0.0,1.6,95,0.00,CLR,,0.01,WeatherDisplay:10.37,2013-09-14 06:17:00,
2013-09-13 23:22:00,57.9,56.5,29.87,WSW,248,0.0,1.6,95,0.00,CLR,,0.01,WeatherDisplay:10.37,2013-09-14 06:22:00,
2013-09-13 23:27:00,57.7,56.3,29.87,WSW,248,0.7,2.3,95,0.00,CLR,,0.01,WeatherDisplay:10.37,2013-09-14 06:27:00,
2013-09-13 23:32:00,57.7,56.3,29.87,North,11,0.0,2.3,95,0.00,CLR,,0.01,WeatherDisplay:10.37,2013-09-14 06:32:00,
2013-09-13 23:37:00,57.6,56.1,29.87,WSW,248,0.0,1.6,95,0.00,CLR,,0.01,WeatherDisplay:10.37,2013-09-14 06:37:00,
2013-09-13 23:42:00,57.6,56.1,29.87,North,7,0.7,2.3,95,0.00,CLR,,0.01,WeatherDisplay:10.37,2013-09-14 06:42:00,
2013-09-13 23:47:00,57.6,56.1,29.87,ESE,112,0.7,2.3,95,0.00,CLR,,0.01,WeatherDisplay:10.37,2013-09-14 06:47:00,
2013-09-13 23:52:00,57.4,56.0,29.87,WNW,292,0.7,2.3,95,0.00,CLR,,0.01,WeatherDisplay:10.37,2013-09-14 06:52:00,
2013-09-13 23:57:00,57.4,56.0,29.88,NE,45,0.7,2.3,95,0.00,CLR,,0.01,WeatherDisplay:10.37,2013-09-14 06:57:00,